Change the Weather History Date:

Wednesday, August 14, 2013

  Actual Average Record
Temperature  
Mean Temperature 67 °F -  
Max Temperature 73 °F 81 °F 96 °F (2002)
Min Temperature 60 °F 57 °F 38 °F (1961)
Cooling Degree Days 2    
Growing Degree Days 17 (Base 50)    
Moisture  
Dew Point 51 °F    
Average Humidity 57    
Maximum Humidity 78    
Minimum Humidity 46    
Precipitation  
Precipitation 0.00 in - - ()
Sea Level Pressure  
Sea Level Pressure 29.82 in    
Wind  
Wind Speed 10 mph (NW)    
Max Wind Speed 14 mph    
Max Gust Speed 23 mph    
Visibility 10 miles    
Events      
Averages and records for this station are not official NWS values.
T = Trace of Precipitation, MM = Missing Value Source: NWS Daily Summary

Daily Weather History Graph

Daily Weather History Graph

Search for Another Location

Airport or City:

Trip Planner

Search our weather history database for the weather conditions in past years. The results will help you decide how hot, cold, wet, or windy it might be!

Date:

Astronomy

Aug. 14, 2013 Rise Set
Actual Time 5:56 AM EDT 7:49 PM EDT
Civil Twilight 5:26 AM EDT 8:19 PM EDT
Nautical Twilight 4:49 AM EDT 8:56 PM EDT
Astronomical Twilight 4:09 AM EDT 9:35 PM EDT
Moon 1:59 PM EDT (8/14) No Moon Set
Length of Visible Light 14h 53m
Length of Day
13h 53m
First Quarter, 52% of the Moon is Illuminated
Aug 14
First Quarter
Aug 20
Full
Aug 28
Last Quarter
Sep 5
New
Sep 12
First Quarter

Hourly Weather History & Observations

Time (EDT) Temp. Dew Point Humidity Pressure Visibility Wind Dir Wind Speed Gust Speed Precip Events Conditions
12:52 AM - - N/A% 29.72 in - North - - N/A   Unknown
1:52 AM - - N/A% 29.72 in - North - - N/A   Unknown
2:52 AM - - N/A% 29.73 in - North - - N/A   Unknown
3:52 AM - - N/A% 29.74 in - North - - N/A   Unknown
4:52 AM - - N/A% 29.75 in - North - - N/A   Unknown
5:52 AM - - N/A% 29.77 in - North - - N/A   Unknown
6:52 AM - - N/A% 29.79 in - North - - N/A   Unknown
7:52 AM - - N/A% 29.79 in - North - - N/A   Unknown
8:52 AM - - N/A% 29.80 in - North - - N/A   Unknown
9:52 AM 64.9 °F 48.9 °F 56% 29.80 in 10.0 mi NW 13.8 mph 20.7 mph N/A   Unknown
10:52 AM 66.0 °F 50.0 °F 56% 29.80 in 10.0 mi WNW 12.7 mph 23.0 mph N/A   Scattered Clouds
11:52 AM 69.1 °F 50.0 °F 51% 29.80 in 10.0 mi NW 13.8 mph 20.7 mph N/A   Clear
12:52 PM 69.1 °F 50.0 °F 51% 29.82 in 10.0 mi NNW 9.2 mph - N/A   Overcast
1:52 PM 70.0 °F 50.0 °F 49% 29.82 in 10.0 mi WNW 8.1 mph 21.9 mph N/A   Mostly Cloudy
2:52 PM 71.1 °F 51.1 °F 49% 29.81 in 10.0 mi NNW 11.5 mph 19.6 mph N/A   Mostly Cloudy
3:52 PM 71.1 °F 51.1 °F 49% 29.82 in 10.0 mi WNW 13.8 mph 23.0 mph N/A   Partly Cloudy
4:52 PM 73.0 °F 51.1 °F 46% 29.82 in 10.0 mi WNW 11.5 mph 23.0 mph N/A   Scattered Clouds
5:52 PM 72.0 °F 51.1 °F 48% 29.84 in 10.0 mi NW 13.8 mph 23.0 mph N/A   Clear
6:52 PM 70.0 °F 51.1 °F 51% 29.87 in 10.0 mi NW 8.1 mph - N/A   Clear
7:52 PM 66.0 °F 52.0 °F 60% 29.89 in 10.0 mi WNW 3.5 mph - N/A   Clear
8:52 PM 64.0 °F 52.0 °F 65% 29.93 in 10.0 mi West 5.8 mph - N/A   Clear
9:52 PM 63.0 °F 52.0 °F 67% 29.97 in 10.0 mi Calm Calm - N/A   Clear
10:52 PM 61.0 °F 53.1 °F 75% 29.99 in 10.0 mi SE 3.5 mph - N/A   Clear
11:52 PM 60.1 °F 53.1 °F 78% 30.00 in 10.0 mi Calm Calm - N/A   Clear